User: anonymous   Login
Location: B
(0.0000°N, 0.0000°E)
Time: 03:57:12
(UTC+01:00)
Language:

Cosmos 1025 Rocket - Orbit

View from above orbital plane
View from above orbital plane
View from above satellite
View from above satellite

Ground track
Ground track

The orbit data is extracted from the following two-line orbital elements,

1 10974U 78067B   18019.19884000  .00000079  00000-0  60006-5 0  9991
2 10974  82.4841 324.6167 0017197 352.8697   7.2273 14.87267311139660
Epoch (UTC): 19 January 2018 04:46:19
Eccentricity: 0.0017197
inclination: 82.4841°
perigee height: 594 km
apogee height: 618 km
right ascension of ascending node: 324.6167°
argument of perigee: 352.8697°
revolutions per day: 14.87267311
mean anomaly at epoch: 7.2273°
orbit number at epoch: 13966

The dashed part of the orbit path shows where the satellite is in the earth's shadow,  

DLR